Home > Weather > Darmstadt > Past weeks

Flag for Germany Past Weather in Darmstadt, Hesse, Germany — Yesterday and Last 2 Weeks

Now
59 °F

Drizzle. Partly sunny.


Feels Like: 56 °F
Forecast: 54 / 67 °F
Wind: 15 mph from South

Location: Frankfurt-M-Flughafen Airport

Current Time: May 30, 2016 at 10:50:33 AM

Latest Report: May 30, 2016 at 10:20 AM


Visibility: 2 mi

Pressure: 29.56 "Hg

Humidity: 100%

Dew Point: 59 °F

Location of DarmstadtLocation

Past Weather in Darmstadt — Graph

°F

Darmstadt Temperature Yesterday

Maximum temperature yesterday: 73 °F (at 3:50 PM)
Minimum temperature yesterday: 57 °F (at 2:50 AM)
Average temperature yesterday: 64 °F

High & Low Weather Summary for the Past Weeks

 TemperatureHumidityPressure
High81 °F (May 22, 3:20 PM)100% (May 19, 12:50 AM)30.12 "Hg (May 19, 12:50 AM)
Low43 °F (May 16, 1:50 AM)24% (May 22, 3:50 PM)29.56 "Hg (May 30, 1:50 AM)
Average58 °F71%29.94 "Hg
* Reported May 15 9:20 AM — May 30 9:50 AM, Darmstadt, Weather by CustomWeather, © 2016

Note: Actual official high and low records may vary slightly from our data, if they occured in-between our weather recording intervals... More about our weather records

Advertising

Darmstadt Weather History for the Previous 24 Hours

Scroll right to see more
 ConditionsComfort  
Time TempWeatherWind HumidityBarometerVisibility
9:50 AM
Mon, May 30
64 °FBroken clouds.5 mph83%29.56 "HgN/A
9:20 AM61 °FDrizzle. Partly sunny.5 mph94%29.56 "Hg4 mi
8:50 AM61 °FDrizzle. Partly sunny.9 mph94%29.56 "Hg3 mi
8:20 AM61 °FLight rain. Partly sunny.9 mph94%29.56 "HgN/A
7:50 AM61 °FPartly sunny.7 mph94%29.56 "HgN/A
7:20 AM61 °FPartly sunny.7 mph94%29.56 "HgN/A
6:50 AM61 °FDrizzle. Partly sunny.7 mph94%29.56 "HgN/A
6:20 AM61 °FPassing clouds.7 mph94%29.56 "HgN/A
5:50 AM61 °FPassing clouds.7 mph94%29.56 "HgN/A
5:20 AM61 °FPartly cloudy.7 mph94%29.56 "HgN/A
4:50 AM61 °FLight rain. Partly cloudy.6 mph94%29.56 "HgN/A
4:20 AM61 °FSprinkles. Partly cloudy.7 mph94%29.56 "HgN/A
3:50 AM61 °FPassing clouds.13 mph94%29.56 "HgN/A
3:20 AM61 °FRain showers. Mostly cloudy.5 mph100%29.56 "HgN/A
2:50 AM61 °FSprinkles. Mostly cloudy.2 mph100%29.56 "HgN/A
2:20 AM61 °FLow clouds.6 mph94%29.56 "HgN/A
1:50 AM61 °FThunderstorms. Mostly cloudy.9 mph94%29.56 "Hg5 mi
1:20 AM61 °FThunderstorms. Passing clouds.7 mph94%29.62 "Hg4 mi
12:50 AM59 °FStrong thunderstorms. Overcast.14 mph100%29.62 "Hg1 mi
12:20 AM61 °FThundershowers. Overcast.8 mph94%29.62 "HgN/A
11:50 PM
Sun, May 29
63 °FThunderstorms. Mostly cloudy.9 mph94%29.62 "HgN/A
11:20 PM63 °FThunderstorms. Mostly cloudy.9 mph94%29.65 "HgN/A
10:50 PM64 °FRain showers. Mostly cloudy.8 mph94%29.65 "HgN/A
10:20 PM64 °FLight rain. Broken clouds.7 mph88%29.65 "HgN/A
9:50 PM66 °FLight rain. Broken clouds.7 mph83%29.65 "HgN/A
9:20 PM66 °FLight rain. Broken clouds.3 mph88%29.65 "HgN/A
8:50 PM68 °FBroken clouds.5 mph78%29.65 "HgN/A
8:20 PM70 °FBroken clouds.6 mph73%29.65 "HgN/A
7:50 PM72 °FBroken clouds.6 mph65%29.65 "HgN/A
7:20 PM72 °FPartly sunny.6 mph61%29.65 "HgN/A
6:50 PM72 °FPartly sunny.7 mph65%29.65 "HgN/A
6:20 PM72 °FPartly sunny.7 mph65%29.65 "HgN/A
5:50 PM73 °FPartly sunny.7 mph57%29.65 "HgN/A
5:20 PM73 °FBroken clouds.5 mph57%29.65 "HgN/A
4:50 PM73 °FBroken clouds.3 mph57%29.68 "HgN/A
4:20 PM72 °FPartly sunny.5 mph61%29.68 "HgN/A
3:50 PM73 °FPartly sunny.5 mph57%29.68 "HgN/A
3:20 PM72 °FBroken clouds.3 mph61%29.68 "HgN/A
2:50 PM72 °FBroken clouds.5 mph61%29.68 "HgN/A
2:20 PM70 °FScattered clouds.3 mph69%29.68 "HgN/A
1:50 PM68 °FPartly sunny.3 mph69%29.71 "HgN/A
1:20 PM66 °FPartly sunny.6 mph78%29.71 "HgN/A
12:50 PM66 °FBroken clouds.2 mph73%29.71 "HgN/A
12:20 PM64 °FBroken clouds.2 mph83%29.71 "HgN/A
11:50 AM64 °FPartly sunny.2 mph83%29.71 "HgN/A
11:20 AM63 °FBroken clouds.5 mph88%29.74 "HgN/A
10:50 AM63 °FBroken clouds.3 mph88%29.74 "HgN/A
10:20 AM63 °FBroken clouds.5 mph88%29.71 "HgN/A
Weather by CustomWeather, © 2016

See weather overviewHow to use our weather pages